Tracking 20093 objects as of 15-Dec-2019
HD Live streaming from Space Station
objects crossing your sky now

COSMOS 2251 DEB

Track COSMOS 2251 DEB now!
10-day predictions


NORAD ID: 40794
Int'l Code: 1993-036BVX
Perigee: 731.4 km
Apogee: 792.1 km
Inclination: 74.0 °
Period: 99.9 minutes
Semi major axis: 7132 km
RCS: Unknown
Launch date: June 16, 1993
Source: Commonwealth of Independent States (former USSR) (CIS)
Launch site: PLESETSK MISSILE AND SPACE COMPLEX (PKMTR)

Note: This is SATELLITE DEBRIS
aabbcc
Your satellite tracking list
Your tracking list is empty




NASA's NSSDC Master Catalog

Two Line Element Set (TLE):
1 40794U 93036BVX 19348.64054308  .00000553  00000-0  17796-3 0  9996
2 40794  73.9939 308.6468 0042574 221.8730 311.9029 14.41180303301178
Source of the keplerian elements: AFSPC